Regional Weather Roundup
Issued by NWS Sterling, VA

Home | Current Version | Previous Version | Text Only | Print | Product List | Glossary Off
Versions: 1 2 3 4 5 6 7 8 9 10 11 12 13 14 15 16 17 18 19 20 21 22 23 24 25 26 27 28 29 30 31 32 33 34 35 36 37 38 39 40 41 42 43 44 45 46 47 48 49 50

555
ASUS41 KLWX 121310
RWRLWX

REGIONAL WEATHER ROUNDUP
NATIONAL WEATHER SERVICE BALTIMORE MD/WASHINGTON DC
800 AM EST FRI FEB 12 2016

Note: "FAIR" indicates few or no clouds below 12,000 feet
with no significant weather and/or obstructions to visibility.
 TC=TEMPERATURE CELSIUS

 * =Non NWS site. Station does not report precipitation (e.g. rain,
    snow, etc.), thunder, or fog.

DCZ001-MDZ009-015-VAZ040>042-051-053>054-121400-
WASHINGTON METRO

CITY           SKY/WX    TMP DP  RH WIND       PRES   REMARKS
WASHINGTON NAT MOCLDY    21   3  45 W5        30.33S
DULLES         MOCLDY    19   7  59 S5        30.30S
ANDREWS AFB    PTCLDY    19   8  63 S2        30.30R
FT BELVOIR     FAIR      18  10  71 CALM      30.33R
QUANTICO       FAIR      22  12  65 NW5       30.34S
COLLEGE PARK*  MOCLDY    21  10  63 CALM      30.31F
LEESBURG*      MOCLDY    19  12  73 CALM      30.29F
MANASSAS*      PTCLDY    18  14  86 CALM      30.32S
GAITHERSBURG*  CLOUDY    16   3  57 CALM      30.32R

$$

MDZ006>007-011-014-121400-
BALTIMORE METRO

CITY           SKY/WX    TMP DP  RH WIND       PRES   REMARKS
BWI AIRPORT    MOCLDY    17   8  67 CALM      30.31R
MD SCIENCE CTR   N/A     20   3  48 MISG      30.40R
MARTIN STATE   MOCLDY    18  16  93 CALM      30.33S
ANNAPOLIS      PTCLDY    19   4  51 W5        30.32S
FORT MEADE*    MOCLDY    18  10  73 CALM      30.34S

$$

MDZ012-015-019>023-121400-
MARYLAND EASTERN SHORE

CITY           SKY/WX    TMP DP  RH WIND       PRES   REMARKS
OCEAN CITY     SUNNY     18  11  74 CALM      30.33S
SALISBURY      MOSUNNY   15  10  80 CALM      30.33R
BAY BRIDGE AP*   N/A     23   5  46 CALM      30.32S
CAMBRIDGE*     SUNNY     21  10  63 CALM      30.32S
EASTON*        MOSUNNY   19  10  68 CALM      30.35S

$$

MDZ017>025-121400-
SOUTHERN MARYLAND

CITY           SKY/WX    TMP DP  RH WIND       PRES   REMARKS
PATUXENT RIVER MOSUNNY   20   7  57 CALM      30.33R
ST INIGOES     SUNNY     20  11  68 CALM      30.33R
LEONARDTOWN*     N/A     19  12  73 MISG      30.34S

$$

MDZ003>005-121400-
NORTH CENTRAL MARYLAND

CITY           SKY/WX    TMP DP  RH WIND       PRES   REMARKS
FREDERICK*     CLEAR     16   9  73 S3        30.32S
HAGERSTOWN APT CLOUDY    12   1  61 SE6       30.24S
WESTMINSTER*   CLOUDY    10   7  85 S3        30.23S

$$

MDZ501>502-121400-
WESTERN MARYLAND

CITY           SKY/WX    TMP DP  RH WIND       PRES   REMARKS
OAKLAND*       CLOUDY     5   1  85 S7        30.01S
CUMBERLAND*    CLOUDY    12   5  73 CALM      30.29R

$$

VAZ025>031-121400-
SHENANDOAH VALLEY

CITY           SKY/WX    TMP DP  RH WIND       PRES   REMARKS
WINCHESTER*    MOCLDY    18   9  68 CALM      30.24F
FRONT ROYAL*   CLOUDY    18   9  68 S3        30.24F
LURAY*         CLOUDY    18  10  73 CALM      30.24S
NEW MARKET*    CLOUDY    15   8  74 CALM      30.23S
STAUNTON*      CLOUDY    19  12  72 CALM      30.23F
WAYNESBORO*    CLOUDY    16   9  72 CALM      30.19F

$$

WVZ021-048>050-054>055-121400-
EASTERN WEST VIRGINIA PANHANDLE

CITY           SKY/WX    TMP DP  RH WIND       PRES   REMARKS
MARTINSBURG    FAIR      15   6  67 CALM      30.26S
PETERSBURG*    CLOUDY    12   7  81 CALM      30.24S

$$

VAZ036>039-050-121400-
CENTRAL FOOTHILLS

CITY           SKY/WX    TMP DP  RH WIND       PRES   REMARKS
CHARLOTTESVILL CLOUDY    19   8  62 CALM      30.27F
CULPEPER*      MOCLDY    19  11  71 CALM      30.31S
ORANGE*        FAIR      21  10  63 CALM      30.31S
GORDONSVILLE*  CLOUDY    20  10  66 SW5       30.29F
WARRENTON*     MOCLDY    20  14  78 CALM      30.30S

$$

VAZ055>057-121400-
NORTH AND CENTRAL PIEDMONT

CITY           SKY/WX    TMP DP  RH WIND       PRES   REMARKS
FREDERICKSBRG* MOCLDY    20  10  64 CALM      30.32S
STAFFORD*      MOCLDY    19  11  72 CALM      30.36S

$$

NCZ024-NYZ072-PAZ021-071-VAZ022-071-121400-
OTHER REGIONAL OBSERVATIONS

CITY           SKY/WX    TMP DP  RH WIND       PRES   REMARKS
NEW YORK CITY  SUNNY     16  -1  47 W7        30.28R
PHILADELPHIA   MOSUNNY   18   0  45 NW8       30.31F WCI   8
PITTSBURGH     CLOUDY     8   4  83 S3        30.14F
ROANOKE        CLOUDY    22   7  52 E3        30.24F
RICHMOND       MOCLDY    20  10  65 CALM      30.32S
RALEIGH        MOCLDY    26   6  42 E8        30.26F WCI  18

$$

ANZ530>537-121400-
MARINE OBSERVATIONS

STATION/POSITION TIME  TEMP    WIND        PRES
                       AIR SEA DIR/SP/G
                 (UTC) (F)     (DEG/KT/KT) (MB)
THOMAS PT LIGHT  1300   20 37  310/  6/  7 1027.6R
BALT KEY BRIDGE  1200   19     310/  5/  6 1026.7F
COVE POINT       1200   20     310/  6/  9 1027.2F
LEWISETTA        1200   23 38   10/  6/  9 1026.7F
SOLOMONS ISLAND  1200   22 39  340/  5/  6   N/A
PINEY POINT      1200           40/  2/  3   N/A

$$





USA.gov is the U.S. government's official web portal to all federal, state and local government web resources and services.